Location: Unspecified
(56.5167°N, 0.0000°E)
Time: 08:39:08
(UTC+02:00)

Cosmos 1674 - Visible Passes

Search period start: 29 July 2014 00:00
Search period end: 08 August 2014 00:00
Orbit: 516 x 543 km, 82.5° (Epoch: 28 July)

Date Brightness Start Highest point End Pass type
(mag) Time Alt. Az. Time Alt. Az. Time Alt. Az.
29 Jul 5.7 03:47:50 10° NNE 03:50:05 15° ENE 03:52:19 10° E visible
30 Jul 5.7 03:37:16 10° NNE 03:39:22 14° ENE 03:41:27 10° E visible
31 Jul 5.7 03:26:42 10° NNE 03:28:38 13° NE 03:30:34 10° E visible
31 Jul 2.9 05:01:27 10° N 05:05:22 81° ENE 05:09:13 10° SSE visible
01 Aug 5.7 03:16:09 10° NNE 03:17:54 13° NE 03:19:40 10° E visible
01 Aug 2.9 04:50:46 10° N 04:54:40 76° ENE 04:58:31 10° SSE visible
02 Aug 5.8 03:05:36 10° NNE 03:07:10 12° NE 03:08:44 10° ENE visible
02 Aug 3.0 04:40:05 10° N 04:43:58 72° ENE 04:47:48 10° SSE visible
03 Aug 5.8 02:55:06 10° NNE 02:56:26 11° NE 02:57:45 10° ENE visible
03 Aug 3.1 04:29:23 10° N 04:33:16 67° ENE 04:37:06 10° SSE visible
04 Aug 5.8 02:44:39 10° NE 02:45:41 11° NE 02:46:43 10° ENE visible
04 Aug 3.2 04:18:42 10° N 04:22:34 63° ENE 04:26:22 10° SSE visible
05 Aug 5.9 02:34:19 10° NE 02:34:56 10° NE 02:35:33 10° ENE visible
05 Aug 3.3 04:08:01 10° N 04:11:51 59° ENE 04:15:39 10° SSE visible
06 Aug 3.4 03:57:19 10° N 04:01:08 55° ENE 04:04:55 10° SSE visible
07 Aug 3.4 03:46:37 10° N 03:50:25 52° ENE 03:54:10 10° SSE visible
07 Aug 4.2 05:23:15 10° NW 05:26:07 20° W 05:28:57 10° SW visible
